• în România
  • Lista ţărilor
  • Pe 7 zile
  • Temperatura apei
  • Hartă satelitară
  • Meteo pe hartă
  • Widget-uri
  • user-avatar
    Intrare

    Meteo pe oră la Priozernyy

    Astăzi, 23 Septembrie, Duminică

    Timp Temperatura Precipitaţii Vânt Presiune Umiditate
    00:00 +19°C° 0 mm 6 m/s 744 mmHg 57%
    01:00 +19°C° 0 mm 6 m/s 744 mmHg 57%
    02:00 +19°C° 0 mm 6 m/s 743 mmHg 58%
    03:00 +17°C° 0 mm 5 m/s 742 mmHg 59%
    04:00 +17°C° 0 mm 6 m/s 742 mmHg 59%
    05:00 +17°C° 0 mm 6 m/s 742 mmHg 60%
    06:00 +17°C° 0 mm 7 m/s 742 mmHg 61%
    07:00 +16°C° 0 mm 7 m/s 742 mmHg 64%
    08:00 +16°C° 0 mm 7 m/s 742 mmHg 67%
    09:00 +16°C° 0 mm 7 m/s 741 mmHg 71%
    10:00 +14°C° 0.6 mm 6 m/s 742 mmHg 75%
    11:00 +13°C° 0.6 mm 6 m/s 742 mmHg 79%
    12:00 +10°C° 0.6 mm 6 m/s 743 mmHg 82%
    13:00 +10°C° 0.4 mm 5 m/s 743 mmHg 82%
    14:00 +10°C° 0.4 mm 5 m/s 743 mmHg 81%
    15:00 +10°C° 0.4 mm 5 m/s 744 mmHg 80%
    16:00 +11°C° 0.1 mm 4 m/s 744 mmHg 80%
    17:00 +11°C° 0.1 mm 4 m/s 744 mmHg 80%
    18:00 +11°C° 0.1 mm 3 m/s 744 mmHg 80%
    19:00 +11°C° 0 mm 3 m/s 744 mmHg 82%
    20:00 +10°C° 0 mm 3 m/s 744 mmHg 84%
    21:00 +9°C° 0 mm 3 m/s 744 mmHg 86%
    22:00 +9°C° 0 mm 3 m/s 744 mmHg 87%
    23:00 +9°C° 0 mm 3 m/s 744 mmHg 88%

    Mâine, 24 Septembrie, Luni

    Timp Temperatura Precipitaţii Vânt Presiune Umiditate
    00:00 +8°C° 0 mm 3 m/s 744 mmHg 90%
    01:00 +8°C° 0 mm 3 m/s 745 mmHg 91%
    02:00 +8°C° 0 mm 3 m/s 745 mmHg 92%
    03:00 +7°C° 0 mm 3 m/s 745 mmHg 92%
    04:00 +7°C° 0 mm 3 m/s 745 mmHg 93%
    05:00 +7°C° 0 mm 3 m/s 744 mmHg 93%
    06:00 +7°C° 0 mm 3 m/s 744 mmHg 94%
    07:00 +8°C° 0 mm 3 m/s 744 mmHg 88%
    08:00 +9°C° 0 mm 3 m/s 744 mmHg 83%
    09:00 +11°C° 0 mm 4 m/s 745 mmHg 78%
    10:00 +11°C° 0 mm 4 m/s 744 mmHg 74%
    11:00 +12°C° 0 mm 5 m/s 744 mmHg 70%
    12:00 +13°C° 0 mm 6 m/s 744 mmHg 66%
    13:00 +13°C° 0.1 mm 6 m/s 743 mmHg 67%
    14:00 +11°C° 0.1 mm 7 m/s 742 mmHg 68%
    15:00 +11°C° 0.1 mm 7 m/s 742 mmHg 68%
    16:00 +10°C° 1.7 mm 7 m/s 741 mmHg 74%
    17:00 +10°C° 1.7 mm 7 m/s 740 mmHg 80%
    18:00 +9°C° 1.7 mm 8 m/s 739 mmHg 86%
    19:00 +9°C° 1.8 mm 8 m/s 738 mmHg 86%
    20:00 +10°C° 1.8 mm 9 m/s 737 mmHg 86%
    21:00 +9°C° 1.8 mm 10 m/s 736 mmHg 86%
    22:00 +9°C° 0.4 mm 10 m/s 735 mmHg 85%
    23:00 +11°C° 0.4 mm 10 m/s 734 mmHg 85%

    Poimâine, 25 Septembrie, Marţi

    Timp Temperatura Precipitaţii Vânt Presiune Umiditate
    00:00 +11°C° 0.4 mm 10 m/s 733 mmHg 85%
    01:00 +9°C° 0.1 mm 10 m/s 733 mmHg 83%
    02:00 +8°C° 0.1 mm 9 m/s 733 mmHg 82%
    03:00 +7°C° 0.1 mm 8 m/s 733 mmHg 81%
    04:00 +7°C° 0 mm 8 m/s 733 mmHg 81%
    05:00 +7°C° 0 mm 9 m/s 733 mmHg 80%
    06:00 +7°C° 0 mm 9 m/s 733 mmHg 80%
    07:00 +7°C° 0 mm 9 m/s 733 mmHg 79%
    08:00 +7°C° 0 mm 9 m/s 734 mmHg 79%
    09:00 +7°C° 0 mm 9 m/s 734 mmHg 78%
    10:00 +7°C° 0 mm 9 m/s 735 mmHg 77%
    11:00 +7°C° 0 mm 9 m/s 736 mmHg 76%
    12:00 +7°C° 0 mm 9 m/s 736 mmHg 74%
    13:00 +7°C° 0 mm 9 m/s 737 mmHg 74%
    14:00 +7°C° 0 mm 9 m/s 738 mmHg 73%
    15:00 +7°C° 0 mm 9 m/s 739 mmHg 72%
    16:00 +7°C° 0 mm 9 m/s 739 mmHg 72%
    17:00 +6°C° 0 mm 8 m/s 740 mmHg 72%
    18:00 +6°C° 0 mm 8 m/s 741 mmHg 72%
    19:00 +6°C° 0 mm 8 m/s 742 mmHg 73%
    20:00 +5°C° 0 mm 7 m/s 742 mmHg 73%
    21:00 +5°C° 0 mm 7 m/s 743 mmHg 74%
    22:00 +5°C° 0 mm 7 m/s 744 mmHg 74%
    23:00 +4°C° 0 mm 6 m/s 744 mmHg 75%

    26 Septembrie, Miercuri

    Timp Temperatura Precipitaţii Vânt Presiune Umiditate
    00:00 +4°C° 0 mm 6 m/s 745 mmHg 75%
    01:00 +4°C° 0 mm 6 m/s 745 mmHg 76%
    02:00 +3°C° 0 mm 6 m/s 746 mmHg 77%
    03:00 +3°C° 0 mm 6 m/s 746 mmHg 78%
    04:00 +3°C° 0 mm 6 m/s 747 mmHg 79%
    05:00 +2°C° 0 mm 5 m/s 748 mmHg 79%
    06:00 +2°C° 0 mm 5 m/s 748 mmHg 79%
    07:00 +2°C° 0 mm 6 m/s 749 mmHg 75%
    08:00 +3°C° 0 mm 6 m/s 749 mmHg 71%
    09:00 +3°C° 0 mm 6 m/s 750 mmHg 67%
    10:00 +4°C° 0 mm 6 m/s 751 mmHg 64%
    11:00 +6°C° 0 mm 5 m/s 751 mmHg 60%
    12:00 +7°C° 0 mm 5 m/s 751 mmHg 57%
    13:00 +7°C° 0 mm 5 m/s 751 mmHg 54%
    14:00 +8°C° 0 mm 5 m/s 752 mmHg 51%
    15:00 +8°C° 0 mm 4 m/s 752 mmHg 49%
    16:00 +8°C° 0 mm 4 m/s 752 mmHg 53%
    17:00 +8°C° 0 mm 3 m/s 752 mmHg 58%
    18:00 +7°C° 0 mm 2 m/s 752 mmHg 62%
    19:00 +7°C° 0 mm 3 m/s 752 mmHg 65%
    20:00 +5°C° 0 mm 3 m/s 752 mmHg 68%
    21:00 +5°C° 0 mm 3 m/s 752 mmHg 71%
    22:00 +4°C° 0 mm 4 m/s 752 mmHg 72%
    23:00 +4°C° 0 mm 4 m/s 751 mmHg 73%

    27 Septembrie, Joi

    Timp Temperatura Precipitaţii Vânt Presiune Umiditate
    00:00 +4°C° 0 mm 4 m/s 751 mmHg 74%
    01:00 +3°C° 0 mm 5 m/s 750 mmHg 74%
    02:00 +3°C° 0 mm 5 m/s 750 mmHg 74%
    03:00 +3°C° 0 mm 6 m/s 749 mmHg 73%
    04:00 +4°C° 0.1 mm 6 m/s 749 mmHg 71%
    05:00 +4°C° 0.1 mm 7 m/s 748 mmHg 69%
    06:00 +4°C° 0.1 mm 8 m/s 747 mmHg 67%
    07:00 +4°C° 0.6 mm 8 m/s 746 mmHg 70%
    08:00 +3°C° 0.6 mm 9 m/s 746 mmHg 72%
    09:00 +3°C° 0.6 mm 10 m/s 745 mmHg 74%
    10:00 +3°C° 0.8 mm 10 m/s 744 mmHg 76%
    11:00 +5°C° 0.8 mm 10 m/s 744 mmHg 78%
    12:00 +5°C° 0.8 mm 10 m/s 743 mmHg 80%
    13:00 +5°C° 0.7 mm 10 m/s 743 mmHg 81%
    14:00 +5°C° 0.7 mm 10 m/s 743 mmHg 83%
    15:00 +5°C° 0.7 mm 9 m/s 743 mmHg 84%
    16:00 +6°C° 0.3 mm 9 m/s 743 mmHg 85%
    17:00 +6°C° 0.3 mm 8 m/s 743 mmHg 86%
    18:00 +8°C° 0.3 mm 7 m/s 743 mmHg 87%
    19:00 +8°C° 0 mm 7 m/s 743 mmHg 88%
    20:00 +8°C° 0 mm 6 m/s 744 mmHg 90%
    21:00 +8°C° 0 mm 6 m/s 744 mmHg 91%
    22:00 +8°C° 0 mm 6 m/s 744 mmHg 92%
    23:00 +8°C° 0 mm 5 m/s 744 mmHg 93%

    28 Septembrie, Vineri

    Timp Temperatura Precipitaţii Vânt Presiune Umiditate
    00:00 +8°C° 0 mm 5 m/s 744 mmHg 94%
    01:00 +8°C° 0.1 mm 5 m/s 744 mmHg 93%
    02:00 +8°C° 0.1 mm 5 m/s 744 mmHg 93%
    03:00 +9°C° 0.1 mm 5 m/s 744 mmHg 93%
    04:00 +9°C° 0.1 mm 5 m/s 744 mmHg 92%
    05:00 +9°C° 0.1 mm 6 m/s 743 mmHg 92%
    06:00 +10°C° 0.1 mm 7 m/s 743 mmHg 92%
    07:00 +10°C° 0.1 mm 7 m/s 743 mmHg 89%
    08:00 +11°C° 0.1 mm 7 m/s 743 mmHg 86%
    09:00 +11°C° 0.1 mm 7 m/s 743 mmHg 83%
    10:00 +12°C° 0 mm 8 m/s 742 mmHg 82%
    11:00 +12°C° 0 mm 8 m/s 742 mmHg 82%
    12:00 +12°C° 0 mm 9 m/s 742 mmHg 81%
    13:00 +12°C° 0 mm 9 m/s 741 mmHg 81%
    14:00 +12°C° 0 mm 9 m/s 741 mmHg 81%
    15:00 +12°C° 0 mm 9 m/s 740 mmHg 81%
    16:00 +13°C° 0 mm 9 m/s 740 mmHg 81%
    17:00 +13°C° 0 mm 9 m/s 740 mmHg 81%
    18:00 +13°C° 0 mm 9 m/s 740 mmHg 81%
    19:00 +12°C° 0.4 mm 9 m/s 741 mmHg 81%
    20:00 +12°C° 0.4 mm 8 m/s 741 mmHg 80%
    21:00 +12°C° 0.4 mm 8 m/s 742 mmHg 80%
    22:00 +10°C° 0 mm 7 m/s 742 mmHg 81%
    23:00 +8°C° 0 mm 6 m/s 743 mmHg 83%
    Arată mai mult